Tracking 27112 objects as of 26-Mar-2023
HD Live streaming from Space Station
objects crossing your sky now

STARLINK-4205

Track STARLINK-4205 now!
10-day predictions
STARLINK-4205 is classified as:


NORAD ID: 53174
Int'l Code: 2022-083AU
Perigee: 546.0 km
Apogee: 548.0 km
Inclination: 53.2 °
Period: 95.4 minutes
Semi major axis: 6917 km
RCS: Unknown
Launch date: July 17, 2022
Source: United States (US)
Launch site: AIR FORCE EASTERN TEST RANGE (AFETR)
Your satellite tracking list
Your tracking list is empty




NASA's NSSDC Master Catalog

Two Line Element Set (TLE):
1 53174U 22083AU  23085.11238296  .00025220  00000-0  15985-2 0  9996
2 53174  53.2160 340.5304 0001413  60.5170 299.5963 15.08806335 38874
Source of the keplerian elements: AFSPC